Regional Weather Roundup
Issued by NWS Upton, NY

Current Version | Previous Version | Text Only | Print | Product List | Glossary On
Versions: 1 2 3 4 5 6 7 8 9 10 11 12 13 14 15 16 17 18 19 20 21 22 23 24 25 26 27 28 29 30 31 32 33 34 35 36 37 38 39 40 41 42 43 44 45 46 47 48 49 50
000 ASUS41 KOKX 311004 RWROKX REGIONAL WEATHER ROUNDUP NATIONAL WEATHER SERVICE NEW YORK NY 600 AM EDT MON AUG 31 2015 NOTE: "FAIR" INDICATES FEW OR NO CLOUDS BELOW 12,000 FEET WITH NO SIGNIFICANT WEATHER AND/OR OBSTRUCTIONS TO VISIBILITY. NYZ071-072-176-178-NJZ106-104-311100- NEW YORK CITY METRO AREA CITY SKY/WX TMP DP RH WIND PRES REMARKS CENTRAL PARK MOCLDY 76 67 73 VRB5 30.04S LAGUARDIA APRT MOCLDY 77 67 71 SW5 30.00S KENNEDY INTL CLOUDY 76 67 73 W10 30.02S NEWARK/LIBERTY MOCLDY 76 68 76 W9 30.02R BRNX BOT. GARD N/A 75 66 73 SW5 30.03S TETERBORO MOCLDY 75 65 70 SW5 30.01R $$ NYZ177-179-078>081-311100- LONG ISLAND NEW YORK CITY SKY/WX TMP DP RH WIND PRES REMARKS FARMINGDALE CLOUDY 75 67 76 SW6 30.01S ISLIP MOCLDY 72 68 87 W5 29.99S SHIRLEY MOCLDY 74 69 85 SW5 30.01S WESTHAMPTON MOCLDY 74 69 85 SW6 30.02S MONTAUK POINT N/A 75 69 81 SW5 30.00F $$ NYZ052-065-067-311100- HUDSON VALLEY CITY SKY/WX TMP DP RH WIND PRES REMARKS WHITE PLAINS MOCLDY 73 66 78 W7 30.02R NEWBURGH MOCLDY 68 68 100 W7 30.03S MONTGOMERY PTCLDY 66 65 96 SW5 30.02R FOG POUGHKEEPSIE PTCLDY 66 63 90 CALM 30.00S ALBANY PTCLDY 65 63 93 CALM 30.00S FOG $$ NJZ001-105-106-008-010-013-015-019>022-104-311100- NEW JERSEY CITY SKY/WX TMP DP RH WIND PRES REMARKS NEWARK/LIBERTY MOCLDY 76 68 76 W9 30.02R TETERBORO MOCLDY 75 65 70 SW5 30.01R CALDWELL MOCLDY 73 66 78 CALM 30.03R MORRISTOWN MOCLDY 66 63 88 CALM 30.03R SOMERVILLE CLOUDY 69 66 90 CALM 30.02R SUSSEX LGT RAIN 65 64 97 SW3 30.04R VSB 1/2 ANDOVER N/A 66 66 100 CALM 30.05R TRENTON CLOUDY 74 67 78 SW6 30.04R MILLVILLE CLOUDY 74 68 81 SW5 30.06S ATLANTIC CITY CLOUDY 74 68 81 S6 30.06R WRIGHTSTOWN CLOUDY 71 67 88 SW5 30.02S TOMS RIVER CLOUDY 72 66 83 SW6 30.05S BELMAR CLOUDY 73 63 68 W6 30.04S $$ PAZ047>061-062-071-311100- EASTERN PENNSYLVANIA CITY SKY/WX TMP DP RH WIND PRES REMARKS PHILADELPHIA CLOUDY 76 67 73 S7 30.05S ALLENTOWN CLOUDY 69 66 90 W3 30.05R SCRANTON MOCLDY 67 63 87 CALM 30.07R $$ CTZ002-004>006-009-010-012-RIZ004-006-007-MAZ004-011-015-311100- SOUTHERN NEW ENGLAND IN CT CITY SKY/WX TMP DP RH WIND PRES REMARKS BRADLEY INTL PTCLDY 65 64 97 N3 29.98S HARTFORD PTCLDY 69 68 96 CALM 29.98F DANBURY MOCLDY 67 64 90 CALM 30.03R WTRBRY/OXFORD MOCLDY 70 63 78 CALM 30.03S FOG BRIDGEPORT MOCLDY 74 69 85 W5 30.00R MERIDEN PTCLDY 68 65 90 CALM 30.00R FOG NEW HAVEN MOCLDY 74 69 85 CALM 30.00R CHESTER NOT AVBL GROTON PTCLDY 73 71 93 W6 29.98S WILLIMANTIC FOG 66 65 96 CALM 30.00S VSB 1/4 IN RI CITY SKY/WX TMP DP RH WIND PRES REMARKS PROVIDENCE MOCLDY 71 68 90 W7 29.98S BLOCK ISLAND MOCLDY 72 70 94 W7 30.00S WESTERLY PTCLDY 69 67 93 CALM 30.00S IN MA CITY SKY/WX TMP DP RH WIND PRES REMARKS BOSTON PTCLDY 71 65 81 SW8 29.97S WORCESTER MOCLDY 67 63 87 W8 30.01F WESTFIELD FOG 63 61 93 CALM 29.99S VSB 1/2 PROVINCETOWN PTCLDY 70 63 78 SW8 29.97S NANTUCKET MOCLDY 72 69 90 W10 29.99S $$ ANZ330-335-338-340-345-350-353-355-311100- COASTAL MARINE OBSERVATIONS STATION/POSITION TIME SKY/WX TEMP WIND PRES VSBY WAVE AIR SEA DIR/SP/G HT/PER (UTC) (F) (DEG/KT/KT) (MB) (MI) (FT/S) NY HARB ENTRANCE 0950 75 76 240/ 14/ 17 1016.2 3/ 9 4S FIRE IS NOT AVBL 20S FIRE ISLAND 0850 75 74 240/ 14/ 16 1016.3 4/ 9 GREAT SOUTH BAY 0900 76 78 260/ 12/ 16 N/A 23SW MTP 0950 75 72 250/ 16/ 17 1015.5 4/ 6 HUDSON CANYON NOT AVBL KINGS POINT NOT AVBL EXECUTION ROCKS 0900 77 240/ 8/ 10 N/A CENTRAL LI SOUND NOT AVBL EASTERN LI SOUND 0900 73 71 280/ 8/ 10 N/A ROBBINS REEF NOT AVBL $$ >>>>>>>>>>>>>>>>>>>>>>>>>>>> KEY <<<<<<<<<<<<<<<<<<<<<<<<<<< > < > SKY/WX - SKY CONDITION/PRESENT WEATHER < > TMP - TEMPERATURE IN FAHRENHEIT < > DP - DEWPOINT IN FAHRENHEIT < > RH - RELATIVE HUMIDITY IN PERCENT < > WIND - DIRECTION AND SPEED IN MPH < > PRES - MEAN SEA LEVEL PRESSURE IN INCHES OF HG < > WCI - WIND CHILL INDEX < > VSB - VISIBILITY IN MILES < > HX - HEAT INDEX < > TC - TEMPERATURE IN CELSIUS < > VRB - VARIABLE WIND DIRECTION < > < >>>>>>>>>>>>>>>>>>>>>>>>>>>> KEY <<<<<<<<<<<<<<<<<<<<<<<<<<<

USA.gov is the U.S. government's official web portal to all federal, state and local government web resources and services.